Location: Unspecified
(0.0000°N, 0.0000°E)
Time: 12:33:03
(UTC+00:00)

STARLINK 1055 - Pass Details

Date: 11 December 2019
Orbit: 448 x 450 km, 53.0° (Epoch: 11 December)

Event Time Altitude Azimuth Distance (km) Brightness Sun altitude
Rises 19:29:05 0° 196° (SSW) 2,441 7.5 -21.9°
Reaches altitude 10° 19:31:26 10° 182° (S) 1,568 6.3 -22.5°
Enters shadow 19:32:49 18° 165° (SSE) 1,146 5.3 -22.8°
